Location: Lake Arresoe
(56.0000°N, 12.5000°E)
Time: 09:01:30
(UTC+02:00)

ISS - Visible Passes

Search period start: 20 October 2020 00:00
Search period end: 29 October 2020 23:00
Orbit: 418 x 419 km, 51.6° (Epoch: 20 October)

Date Brightness Start Highest point End Pass type
(mag) Time Alt. Az. Time Alt. Az. Time Alt. Az.
23 Oct -0.6 06:55:41 10° SSE 06:56:34 11° SE 06:57:29 10° SE visible
25 Oct -1.2 05:54:58 10° SSW 05:57:25 19° SSE 05:59:53 10° ESE visible
26 Oct -1.0 05:07:57 10° S 05:09:53 15° SSE 05:11:49 10° ESE visible
27 Oct -0.8 04:21:45 10° SSE 04:22:23 11° SE 04:23:14 10° SE visible
27 Oct -2.0 05:55:27 10° SW 05:58:24 28° SSE 06:01:21 10° E visible
28 Oct -1.8 05:09:09 16° SSW 05:10:48 23° SSE 05:13:33 10° ESE visible
29 Oct -1.5 04:23:31 19° SE 04:23:31 19° SE 04:25:40 10° ESE visible
29 Oct -2.6 05:56:29 11° WSW 05:59:27 36° S 06:02:35 10° ESE visible
